CDG8832 ZUUU-ZSJN

Flight info

Callsign CDG8832
Flight time 2h 1m
Altitude 31100
Route GURET W233 AGULU W81 APIMI W275 NSH W281 SUDGO W4 WXI W59 UBSIS
Aircraft B738/M-SDE2E3FGHIRWXY/LB1

Departure

Time 2026-04-23 06:26
Airport Chengdu Shuangliu International Airport (ZUUU)

Arrival

Time 2026-04-23 08:27
Airport Jinan Yaoqiang International Airport (ZSJN)
Time Latitude Longitude Altitude Speed Heading
2026-04-23 05:50 30.57080 103.95136 1689 ft 0 kts 113°
2026-04-23 06:15 30.57086 103.95120 1689 ft 2 kts 112°
2026-04-23 06:16 30.57091 103.95104 1689 ft 2 kts 121°
2026-04-23 06:16 30.57102 103.95091 1689 ft 2 kts 147°
2026-04-23 06:16 30.57116 103.95084 1689 ft 2 kts 170°
2026-04-23 06:16 30.57131 103.95084 1689 ft 2 kts 193°
2026-04-23 06:17 30.57145 103.95091 1689 ft 2 kts 207°
2026-04-23 06:17 30.57153 103.95095 1689 ft 0 kts 202°
2026-04-23 06:19 30.57151 103.95094 1689 ft 1 kts 202°
2026-04-23 06:19 30.57139 103.95079 1689 ft 4 kts 254°
2026-04-23 06:19 30.57147 103.95028 1689 ft 8 kts 291°
2026-04-23 06:19 30.57174 103.94949 1689 ft 12 kts 292°
2026-04-23 06:20 30.57208 103.94854 1689 ft 12 kts 292°
2026-04-23 06:20 30.57237 103.94769 1689 ft 10 kts 291°
2026-04-23 06:20 30.57214 103.94707 1689 ft 8 kts 204°
2026-04-23 06:20 30.57155 103.94679 1689 ft 10 kts 201°
2026-04-23 06:21 30.57083 103.94647 1689 ft 11 kts 202°
2026-04-23 06:21 30.57042 103.94595 1689 ft 9 kts 276°
2026-04-23 06:21 30.57027 103.94532 1689 ft 7 kts 220°
2026-04-23 06:21 30.56978 103.94506 1689 ft 8 kts 201°
2026-04-23 06:22 30.56908 103.94475 1689 ft 12 kts 201°
2026-04-23 06:22 30.56812 103.94430 1689 ft 16 kts 202°
2026-04-23 06:22 30.56694 103.94375 1689 ft 19 kts 202°
2026-04-23 06:22 30.56565 103.94315 1689 ft 20 kts 202°
2026-04-23 06:23 30.56438 103.94256 1689 ft 19 kts 203°
2026-04-23 06:23 30.56337 103.94209 1689 ft 9 kts 201°
2026-04-23 06:23 30.56305 103.94157 1689 ft 8 kts 277°
2026-04-23 06:23 30.56318 103.94114 1689 ft 1 kts 292°
2026-04-23 06:24 30.56321 103.94105 1689 ft 1 kts 292°
2026-04-23 06:24 30.56329 103.94082 1689 ft 5 kts 292°
2026-04-23 06:24 30.56351 103.94027 1689 ft 7 kts 310°
2026-04-23 06:24 30.56396 103.94022 1689 ft 6 kts 18°
2026-04-23 06:25 30.56410 103.94029 1689 ft 0 kts 22°
2026-04-23 06:25 30.56412 103.94029 1689 ft 2 kts 22°
2026-04-23 06:25 30.56590 103.94112 1689 ft 63 kts 21°
2026-04-23 06:25 30.57233 103.94411 1689 ft 131 kts 22°
2026-04-23 06:26 30.58263 103.94891 1728 ft 181 kts 22°
2026-04-23 06:26 30.59419 103.95418 2387 ft 181 kts 23°
2026-04-23 06:26 30.60585 103.95959 3101 ft 183 kts 24°
2026-04-23 06:26 30.61750 103.96506 3704 ft 178 kts 24°
2026-04-23 06:27 30.62929 103.97058 4015 ft 186 kts 23°
2026-04-23 06:27 30.64120 103.97613 4409 ft 187 kts 23°
2026-04-23 06:27 30.65340 103.98183 4819 ft 191 kts 23°
2026-04-23 06:27 30.66618 103.98779 5237 ft 202 kts 23°
2026-04-23 06:28 30.67943 103.99408 5632 ft 215 kts 27°
2026-04-23 06:28 30.69138 104.00548 5938 ft 232 kts 58°
2026-04-23 06:28 30.69910 104.02224 6408 ft 243 kts 66°
2026-04-23 06:28 30.70669 104.04039 6830 ft 260 kts 64°
2026-04-23 06:29 30.71552 104.05940 7371 ft 272 kts 62°
2026-04-23 06:29 30.72504 104.07867 7909 ft 284 kts 61°
2026-04-23 06:29 30.73524 104.09905 8551 ft 292 kts 61°
2026-04-23 06:29 30.74541 104.11943 9236 ft 298 kts 60°
2026-04-23 06:30 30.75577 104.14024 9968 ft 301 kts 60°
2026-04-23 06:30 30.76895 104.15971 10505 ft 312 kts 39°
2026-04-23 06:30 30.78825 104.17220 10924 ft 325 kts 19°
2026-04-23 06:30 30.81033 104.18051 11281 ft 342 kts 15°
2026-04-23 06:31 30.83368 104.18816 11652 ft 358 kts 14°
2026-04-23 06:31 30.85822 104.19647 12048 ft 373 kts 15°
2026-04-23 06:31 30.88351 104.20561 12468 ft 387 kts 16°
2026-04-23 06:31 30.90950 104.21547 13039 ft 396 kts 17°
2026-04-23 06:32 30.93553 104.22563 13718 ft 401 kts 17°
2026-04-23 06:32 30.96195 104.23607 14525 ft 403 kts 17°
2026-04-23 06:32 30.98805 104.24837 15246 ft 409 kts 27°
2026-04-23 06:32 31.01084 104.26819 16020 ft 414 kts 43°
2026-04-23 06:33 31.02899 104.29506 16739 ft 420 kts 57°
2026-04-23 06:33 31.04142 104.32569 17397 ft 426 kts 69°
2026-04-23 06:33 31.04953 104.35933 18016 ft 433 kts 78°
2026-04-23 06:33 31.05198 104.39436 18654 ft 438 kts 88°
2026-04-23 06:34 31.05131 104.42979 19276 ft 443 kts 91°
2026-04-23 06:34 31.04943 104.46566 19837 ft 450 kts 92°
2026-04-23 06:34 31.04711 104.50242 20416 ft 456 kts 93°
2026-04-23 06:34 31.04477 104.53918 21079 ft 459 kts 92°
2026-04-23 06:35 31.04247 104.57664 21662 ft 464 kts 92°
2026-04-23 06:35 31.04029 104.61401 22158 ft 469 kts 92°
2026-04-23 06:35 31.03820 104.65198 22740 ft 474 kts 92°
2026-04-23 06:35 31.03614 104.69107 23287 ft 478 kts 92°
2026-04-23 06:36 31.03416 104.72989 23825 ft 482 kts 91°
2026-04-23 06:36 31.03222 104.76892 24376 ft 485 kts 91°
2026-04-23 06:36 31.03031 104.80804 24847 ft 490 kts 91°
2026-04-23 06:36 31.02840 104.84766 25325 ft 494 kts 91°
2026-04-23 06:37 31.02675 104.88827 25767 ft 498 kts 89°
2026-04-23 06:37 31.02704 104.92853 26295 ft 498 kts 83°
2026-04-23 06:37 31.03192 104.96857 27037 ft 489 kts 73°
2026-04-23 06:37 31.04156 105.00603 27764 ft 480 kts 63°
2026-04-23 06:38 31.05555 105.04105 28445 ft 471 kts 55°
2026-04-23 06:38 31.07201 105.07353 29000 ft 467 kts 51°
2026-04-23 06:38 31.09007 105.10534 29510 ft 465 kts 49°
2026-04-23 06:38 31.10846 105.13641 30109 ft 463 kts 48°
2026-04-23 06:39 31.12669 105.16711 30641 ft 461 kts 49°
2026-04-23 06:39 31.14475 105.19791 30990 ft 464 kts 49°
2026-04-23 06:39 31.18107 105.26143 31026 ft 469 kts 50°
2026-04-23 06:40 31.21660 105.32572 31031 ft 469 kts 51°
2026-04-23 06:40 31.25186 105.38980 31034 ft 469 kts 50°
2026-04-23 06:41 31.28808 105.45325 31039 ft 468 kts 49°
2026-04-23 06:41 31.32436 105.51600 31042 ft 469 kts 49°
2026-04-23 06:42 31.36080 105.57929 31043 ft 470 kts 49°
2026-04-23 06:42 31.39718 105.64280 31043 ft 470 kts 50°
2026-04-23 06:43 31.43365 105.70675 31044 ft 472 kts 50°
2026-04-23 06:43 31.46972 105.77019 31049 ft 473 kts 50°
2026-04-23 06:44 31.50617 105.83442 31044 ft 474 kts 50°
2026-04-23 06:44 31.54256 105.89871 31046 ft 474 kts 50°
2026-04-23 06:45 31.57886 105.96294 31048 ft 472 kts 50°
2026-04-23 06:45 31.61505 106.02700 31049 ft 473 kts 50°
2026-04-23 06:46 31.65144 106.09152 31052 ft 474 kts 50°
2026-04-23 06:46 31.68757 106.15572 31054 ft 473 kts 50°
2026-04-23 06:47 31.72385 106.22029 31056 ft 473 kts 51°
2026-04-23 06:47 31.76005 106.28481 31056 ft 474 kts 50°
2026-04-23 06:48 31.79625 106.34946 31056 ft 474 kts 50°
2026-04-23 06:48 31.83247 106.41426 31061 ft 473 kts 51°
2026-04-23 06:49 31.86841 106.47865 31073 ft 474 kts 50°
2026-04-23 06:49 31.90461 106.54364 31069 ft 474 kts 51°
2026-04-23 06:50 31.94056 106.60828 31073 ft 473 kts 51°
2026-04-23 06:50 31.97662 106.67321 31075 ft 473 kts 51°
2026-04-23 06:51 32.01250 106.73791 31069 ft 474 kts 51°
2026-04-23 06:51 32.04830 106.80260 31074 ft 473 kts 51°
2026-04-23 06:52 32.08421 106.86763 31087 ft 471 kts 51°
2026-04-23 06:52 32.11984 106.93224 31092 ft 472 kts 51°
2026-04-23 06:53 32.15562 106.99725 31092 ft 472 kts 51°
2026-04-23 06:53 32.19127 107.06211 31088 ft 472 kts 51°
2026-04-23 06:54 32.22680 107.12692 31091 ft 472 kts 51°
2026-04-23 06:54 32.26052 107.19367 31091 ft 476 kts 58°
2026-04-23 06:55 32.28690 107.26582 31090 ft 480 kts 64°
2026-04-23 06:55 32.30971 107.34001 31095 ft 481 kts 66°
2026-04-23 06:56 32.33177 107.41437 31099 ft 480 kts 66°
2026-04-23 06:56 32.35402 107.48887 31103 ft 481 kts 66°
2026-04-23 06:57 32.37637 107.56291 31100 ft 480 kts 65°
2026-04-23 06:57 32.39898 107.63738 31090 ft 479 kts 65°
2026-04-23 06:58 32.42155 107.71160 31095 ft 480 kts 66°
2026-04-23 06:58 32.44408 107.78577 31091 ft 479 kts 66°
2026-04-23 06:59 32.46659 107.85999 31103 ft 481 kts 66°
2026-04-23 06:59 32.48958 107.93384 31116 ft 477 kts 63°
2026-04-23 07:00 32.52397 107.99889 31126 ft 460 kts 39°
2026-04-23 07:00 32.54819 108.02316 31123 ft 452 kts 28°
2026-04-23 07:00 32.57487 108.04220 31125 ft 448 kts 22°
2026-04-23 07:01 32.63174 108.07048 31123 ft 441 kts 12°
2026-04-23 07:01 32.69049 108.09110 31100 ft 437 kts
2026-04-23 07:02 32.74910 108.11028 31092 ft 438 kts
2026-04-23 07:02 32.80771 108.12997 31081 ft 437 kts 10°
2026-04-23 07:03 32.86612 108.15026 31084 ft 436 kts 11°
2026-04-23 07:03 32.92424 108.17075 31077 ft 436 kts 11°
2026-04-23 07:04 32.98261 108.19147 31080 ft 437 kts 11°
2026-04-23 07:04 33.04085 108.21220 31078 ft 437 kts 11°
2026-04-23 07:05 33.09919 108.23303 31093 ft 437 kts 11°
2026-04-23 07:05 33.15747 108.25385 31107 ft 436 kts 11°
2026-04-23 07:06 33.21512 108.27606 31118 ft 439 kts 17°
2026-04-23 07:06 33.26743 108.31535 31133 ft 455 kts 38°
2026-04-23 07:07 33.30716 108.37532 31136 ft 466 kts 55°
2026-04-23 07:07 33.32122 108.41001 31137 ft 472 kts 66°
2026-04-23 07:07 33.32958 108.44797 31143 ft 476 kts 76°
2026-04-23 07:08 33.33800 108.52710 31142 ft 479 kts 82°
2026-04-23 07:08 33.34371 108.60606 31139 ft 479 kts 82°
2026-04-23 07:09 33.34921 108.68556 31134 ft 481 kts 83°
2026-04-23 07:09 33.35491 108.76447 31120 ft 480 kts 82°
2026-04-23 07:10 33.36090 108.84433 31117 ft 481 kts 82°
2026-04-23 07:10 33.36691 108.92342 31111 ft 480 kts 82°
2026-04-23 07:11 33.37293 109.00254 31108 ft 480 kts 82°
2026-04-23 07:12 33.38199 109.12231 31124 ft 482 kts 82°
2026-04-23 07:12 33.38796 109.20205 31134 ft 481 kts 82°
2026-04-23 07:13 33.39388 109.28194 31134 ft 481 kts 82°
2026-04-23 07:13 33.39973 109.36143 31127 ft 481 kts 82°
2026-04-23 07:14 33.40552 109.44082 31123 ft 482 kts 82°
2026-04-23 07:14 33.41132 109.52100 31111 ft 482 kts 82°
2026-04-23 07:15 33.41725 109.60046 31105 ft 481 kts 81°
2026-04-23 07:15 33.42479 109.67992 31107 ft 482 kts 81°
2026-04-23 07:16 33.43296 109.75980 31102 ft 480 kts 81°
2026-04-23 07:16 33.44094 109.83856 31111 ft 482 kts 81°
2026-04-23 07:17 33.44884 109.91868 31108 ft 482 kts 81°
2026-04-23 07:17 33.45650 109.99818 31102 ft 482 kts 81°
2026-04-23 07:18 33.46411 110.07808 31102 ft 483 kts 81°
2026-04-23 07:18 33.47161 110.15768 31098 ft 483 kts 81°
2026-04-23 07:19 33.47906 110.23735 31096 ft 481 kts 81°
2026-04-23 07:19 33.48650 110.31747 31095 ft 484 kts 81°
2026-04-23 07:20 33.49506 110.39704 31087 ft 481 kts 76°
2026-04-23 07:20 33.50392 110.43510 31084 ft 476 kts 64°
2026-04-23 07:20 33.51911 110.46980 31093 ft 470 kts 51°
2026-04-23 07:21 33.56319 110.52613 31091 ft 459 kts 34°
2026-04-23 07:21 33.61607 110.56753 31098 ft 451 kts 22°
2026-04-23 07:22 33.67230 110.59950 31104 ft 447 kts 18°
2026-04-23 07:22 33.72926 110.62989 31114 ft 447 kts 18°
2026-04-23 07:23 33.78597 110.66088 31123 ft 448 kts 20°
2026-04-23 07:23 33.84282 110.69288 31123 ft 449 kts 20°
2026-04-23 07:24 33.89917 110.72510 31122 ft 448 kts 20°
2026-04-23 07:24 33.95514 110.75733 31107 ft 448 kts 20°
2026-04-23 07:25 34.01158 110.78990 31094 ft 448 kts 20°
2026-04-23 07:25 34.06805 110.82255 31102 ft 448 kts 21°
2026-04-23 07:26 34.12387 110.85488 31099 ft 446 kts 21°
2026-04-23 07:26 34.17993 110.88741 31105 ft 446 kts 21°
2026-04-23 07:27 34.23602 110.92000 31105 ft 446 kts 21°
2026-04-23 07:27 34.29173 110.95239 31112 ft 446 kts 21°
2026-04-23 07:28 34.34793 110.98511 31105 ft 446 kts 21°
2026-04-23 07:28 34.40286 111.01935 31108 ft 451 kts 28°
2026-04-23 07:28 34.42807 111.04265 31093 ft 456 kts 39°
2026-04-23 07:29 34.44901 111.07129 31112 ft 462 kts 49°
2026-04-23 07:29 34.48481 111.13618 31108 ft 464 kts 54°
2026-04-23 07:30 34.51836 111.20322 31119 ft 465 kts 55°
2026-04-23 07:30 34.55159 111.27050 31121 ft 464 kts 55°
2026-04-23 07:31 34.58472 111.33715 31108 ft 463 kts 55°
2026-04-23 07:31 34.61820 111.40407 31088 ft 463 kts 55°
2026-04-23 07:32 34.65138 111.47021 31066 ft 461 kts 55°
2026-04-23 07:32 34.68496 111.53715 31069 ft 463 kts 55°
2026-04-23 07:33 34.71848 111.60404 31069 ft 463 kts 55°
2026-04-23 07:33 34.75183 111.67071 31061 ft 462 kts 56°
2026-04-23 07:34 34.78523 111.73760 31068 ft 461 kts 56°
2026-04-23 07:34 34.81836 111.80409 31064 ft 460 kts 56°
2026-04-23 07:35 34.85172 111.87112 31087 ft 462 kts 56°
2026-04-23 07:35 34.88480 111.93768 31082 ft 459 kts 56°
2026-04-23 07:36 34.91836 112.00455 31075 ft 460 kts 56°
2026-04-23 07:36 34.95160 112.07056 31091 ft 460 kts 56°
2026-04-23 07:37 34.98502 112.13705 31084 ft 460 kts 56°
2026-04-23 07:37 35.01841 112.20367 31079 ft 459 kts 56°
2026-04-23 07:38 35.05169 112.27027 31073 ft 459 kts 56°
2026-04-23 07:38 35.08484 112.33675 31080 ft 459 kts 56°
2026-04-23 07:39 35.11806 112.40348 31071 ft 458 kts 56°
2026-04-23 07:39 35.15120 112.47022 31081 ft 458 kts 56°
2026-04-23 07:40 35.18406 112.53651 31079 ft 458 kts 56°
2026-04-23 07:40 35.21712 112.60321 31085 ft 459 kts 56°
2026-04-23 07:41 35.25047 112.66979 31085 ft 457 kts 56°
2026-04-23 07:41 35.28373 112.73595 31085 ft 459 kts 56°
2026-04-23 07:42 35.31707 112.80238 31082 ft 458 kts 56°
2026-04-23 07:42 35.35010 112.86844 31074 ft 458 kts 56°
2026-04-23 07:43 35.38324 112.93488 31067 ft 458 kts 56°
2026-04-23 07:43 35.41639 113.00150 31059 ft 457 kts 56°
2026-04-23 07:44 35.44962 113.06843 31063 ft 458 kts 56°
2026-04-23 07:44 35.48259 113.13493 31072 ft 458 kts 56°
2026-04-23 07:45 35.51554 113.20155 31086 ft 457 kts 56°
2026-04-23 07:45 35.54849 113.26830 31092 ft 457 kts 56°
2026-04-23 07:46 35.58148 113.33524 31091 ft 456 kts 56°
2026-04-23 07:46 35.61411 113.40157 31091 ft 457 kts 56°
2026-04-23 07:47 35.64742 113.46811 31101 ft 455 kts 55°
2026-04-23 07:47 35.68103 113.53429 31093 ft 456 kts 55°
2026-04-23 07:48 35.71477 113.60075 31075 ft 456 kts 55°
2026-04-23 07:48 35.74844 113.66735 31060 ft 456 kts 56°
2026-04-23 07:49 35.78186 113.73371 31047 ft 456 kts 56°
2026-04-23 07:49 35.81515 113.80001 31038 ft 457 kts 56°
2026-04-23 07:50 35.84859 113.86673 31036 ft 456 kts 56°
2026-04-23 07:50 35.88182 113.93318 31034 ft 456 kts 56°
2026-04-23 07:51 35.91520 114.00008 31032 ft 458 kts 56°
2026-04-23 07:51 35.94855 114.06701 31021 ft 456 kts 56°
2026-04-23 07:52 35.98160 114.13350 31016 ft 455 kts 56°
2026-04-23 07:52 36.01471 114.20022 31010 ft 455 kts 56°
2026-04-23 07:53 36.04763 114.26667 31009 ft 457 kts 56°
2026-04-23 07:53 36.08071 114.33360 31012 ft 457 kts 56°
2026-04-23 07:54 36.11386 114.40081 31003 ft 456 kts 56°
2026-04-23 07:54 36.14663 114.46738 31008 ft 456 kts 56°
2026-04-23 07:55 36.17956 114.53441 31005 ft 456 kts 56°
2026-04-23 07:55 36.21250 114.60158 31010 ft 456 kts 56°
2026-04-23 07:56 36.24525 114.66849 31011 ft 455 kts 56°
2026-04-23 07:56 36.27800 114.73556 31011 ft 455 kts 56°
2026-04-23 07:57 36.31044 114.80306 31011 ft 456 kts 57°
2026-04-23 07:57 36.34233 114.87096 31015 ft 457 kts 58°
2026-04-23 07:58 36.36826 114.94336 31009 ft 460 kts 68°
2026-04-23 07:58 36.38714 115.01959 31016 ft 462 kts 72°
2026-04-23 07:59 36.40355 115.09600 31007 ft 460 kts 73°
2026-04-23 07:59 36.41957 115.17258 31010 ft 460 kts 73°
2026-04-23 08:00 36.43874 115.24822 31006 ft 458 kts 66°
2026-04-23 08:00 36.46379 115.32102 31009 ft 457 kts 63°
2026-04-23 08:01 36.49014 115.39262 31009 ft 456 kts 62°
2026-04-23 08:01 36.51632 115.46413 31005 ft 456 kts 62°
2026-04-23 08:02 36.54227 115.53614 31004 ft 455 kts 63°
2026-04-23 08:02 36.56790 115.60813 31008 ft 456 kts 63°
2026-04-23 08:03 36.59313 115.67953 31007 ft 454 kts 64°
2026-04-23 08:03 36.61826 115.75095 30543 ft 445 kts 64°
2026-04-23 08:03 36.63059 115.78610 29982 ft 442 kts 63°
2026-04-23 08:04 36.64272 115.82072 29512 ft 438 kts 64°
2026-04-23 08:04 36.65473 115.85502 28958 ft 435 kts 64°
2026-04-23 08:04 36.66687 115.88969 28373 ft 433 kts 64°
2026-04-23 08:04 36.67876 115.92368 27812 ft 430 kts 64°
2026-04-23 08:05 36.69064 115.95770 27221 ft 428 kts 64°
2026-04-23 08:05 36.70254 115.99180 26629 ft 426 kts 64°
2026-04-23 08:05 36.71421 116.02528 26045 ft 423 kts 64°
2026-04-23 08:05 36.72586 116.05873 25455 ft 421 kts 64°
2026-04-23 08:06 36.73733 116.09169 24860 ft 418 kts 64°
2026-04-23 08:06 36.74892 116.12505 24268 ft 415 kts 64°
2026-04-23 08:06 36.76021 116.15762 23684 ft 411 kts 64°
2026-04-23 08:06 36.77149 116.19017 23095 ft 408 kts 64°
2026-04-23 08:07 36.78276 116.22276 22516 ft 404 kts 64°
2026-04-23 08:07 36.79302 116.25481 21948 ft 402 kts 68°
2026-04-23 08:07 36.80074 116.28838 21362 ft 401 kts 75°
2026-04-23 08:07 36.80492 116.32227 20808 ft 399 kts 81°
2026-04-23 08:08 36.80709 116.35676 20255 ft 397 kts 84°
2026-04-23 08:08 36.80832 116.39107 19699 ft 394 kts 85°
2026-04-23 08:08 36.80920 116.42497 19134 ft 391 kts 85°
2026-04-23 08:08 36.80999 116.45851 18578 ft 389 kts 85°
2026-04-23 08:09 36.81079 116.49223 18011 ft 386 kts 85°
2026-04-23 08:09 36.81165 116.52529 17463 ft 384 kts 85°
2026-04-23 08:09 36.81259 116.55817 16912 ft 381 kts 85°
2026-04-23 08:09 36.81359 116.59105 16353 ft 378 kts 85°
2026-04-23 08:10 36.81464 116.62349 15797 ft 376 kts 85°
2026-04-23 08:10 36.81571 116.65627 15230 ft 373 kts 86°
2026-04-23 08:10 36.81779 116.71985 14146 ft 368 kts 86°
2026-04-23 08:11 36.81882 116.75159 13599 ft 365 kts 86°
2026-04-23 08:11 36.81984 116.78326 13049 ft 362 kts 86°
2026-04-23 08:11 36.82082 116.81409 12525 ft 359 kts 86°
2026-04-23 08:11 36.82179 116.84508 12217 ft 349 kts 86°
2026-04-23 08:12 36.82269 116.87460 12083 ft 335 kts 86°
2026-04-23 08:12 36.82356 116.90314 11941 ft 322 kts 86°
2026-04-23 08:12 36.82437 116.93078 11587 ft 318 kts 86°
2026-04-23 08:12 36.82502 116.95851 11177 ft 316 kts 88°
2026-04-23 08:13 36.82344 116.98534 11091 ft 303 kts 99°
2026-04-23 08:13 36.81582 117.00945 10895 ft 296 kts 125°
2026-04-23 08:13 36.80057 117.02650 10572 ft 294 kts 152°
2026-04-23 08:13 36.78119 117.03436 10215 ft 292 kts 173°
2026-04-23 08:14 36.76079 117.03568 9848 ft 290 kts 179°
2026-04-23 08:14 36.74064 117.03571 9489 ft 289 kts 180°
2026-04-23 08:14 36.72064 117.03561 9141 ft 287 kts 180°
2026-04-23 08:14 36.70064 117.03554 8784 ft 286 kts 180°
2026-04-23 08:15 36.68095 117.03552 8436 ft 285 kts 180°
2026-04-23 08:15 36.66095 117.03553 8082 ft 283 kts 179°
2026-04-23 08:15 36.64112 117.03555 7729 ft 282 kts 179°
2026-04-23 08:15 36.62138 117.03557 7374 ft 280 kts 179°
2026-04-23 08:16 36.60206 117.03556 7153 ft 274 kts 179°
2026-04-23 08:16 36.58325 117.03585 7075 ft 261 kts 178°
2026-04-23 08:16 36.56538 117.03590 7003 ft 250 kts 180°
2026-04-23 08:16 36.54842 117.03561 6922 ft 240 kts 180°
2026-04-23 08:17 36.53188 117.03520 6756 ft 234 kts 180°
2026-04-23 08:17 36.51563 117.03472 6603 ft 230 kts 180°
2026-04-23 08:17 36.49924 117.03421 6515 ft 230 kts 180°
2026-04-23 08:17 36.48329 117.03377 6472 ft 230 kts 179°
2026-04-23 08:18 36.46743 117.03728 6267 ft 230 kts 153°
2026-04-23 08:18 36.45548 117.04967 6037 ft 228 kts 125°
2026-04-23 08:18 36.44759 117.06664 5884 ft 225 kts 117°
2026-04-23 08:18 36.44299 117.08514 5703 ft 229 kts 90°
2026-04-23 08:19 36.44767 117.10398 5536 ft 232 kts 56°
2026-04-23 08:19 36.45907 117.11816 5374 ft 234 kts 40°
2026-04-23 08:19 36.47159 117.13085 5208 ft 233 kts 41°
2026-04-23 08:19 36.48397 117.14411 5039 ft 232 kts 43°
2026-04-23 08:20 36.49596 117.15743 4942 ft 229 kts 43°
2026-04-23 08:20 36.50784 117.17073 4942 ft 232 kts 43°
2026-04-23 08:20 36.51999 117.18430 4937 ft 233 kts 43°
2026-04-23 08:20 36.53197 117.19765 4934 ft 233 kts 43°
2026-04-23 08:21 36.54460 117.21058 4933 ft 234 kts 34°
2026-04-23 08:21 36.55953 117.21803 4934 ft 235 kts
2026-04-23 08:21 36.57585 117.21770 4935 ft 231 kts 353°
2026-04-23 08:21 36.59148 117.21609 4909 ft 217 kts 357°
2026-04-23 08:22 36.60632 117.21574 4710 ft 213 kts 360°
2026-04-23 08:22 36.62120 117.21588 4391 ft 213 kts 360°
2026-04-23 08:22 36.63582 117.21598 4136 ft 207 kts 359°
2026-04-23 08:22 36.65018 117.21590 3948 ft 202 kts 359°
2026-04-23 08:23 36.66425 117.21583 3591 ft 207 kts 359°
2026-04-23 08:23 36.67890 117.21594 3237 ft 208 kts 359°
2026-04-23 08:23 36.69333 117.21600 2956 ft 206 kts 359°
2026-04-23 08:23 36.70742 117.21590 2738 ft 201 kts 358°
2026-04-23 08:24 36.72141 117.21591 2389 ft 198 kts 359°
2026-04-23 08:24 36.73474 117.21603 2142 ft 187 kts 359°
2026-04-23 08:24 36.74732 117.21599 1957 ft 170 kts 358°
2026-04-23 08:24 36.75912 117.21587 1731 ft 169 kts 357°
2026-04-23 08:25 36.77061 117.21595 1437 ft 163 kts 359°
2026-04-23 08:25 36.78207 117.21618 1188 ft 163 kts 359°
2026-04-23 08:25 36.79336 117.21613 1017 ft 164 kts 357°
2026-04-23 08:25 36.80481 117.21604 808 ft 162 kts 358°
2026-04-23 08:26 36.81604 117.21599 601 ft 161 kts 358°
2026-04-23 08:26 36.82722 117.21598 391 ft 161 kts 358°
2026-04-23 08:26 36.83852 117.21596 174 ft 160 kts 359°
2026-04-23 08:26 36.84932 117.21594 83 ft 136 kts 360°
2026-04-23 08:27 36.85614 117.21594 83 ft 61 kts 360°
2026-04-23 08:27 36.85863 117.21580 83 ft 18 kts 341°
2026-04-23 08:27 36.85979 117.21521 83 ft 17 kts 328°
2026-04-23 08:27 36.86080 117.21442 83 ft 16 kts 329°
2026-04-23 08:28 36.86180 117.21383 83 ft 11 kts 337°
2026-04-23 08:28 36.86221 117.21315 83 ft 10 kts 265°
2026-04-23 08:28 36.86170 117.21272 83 ft 9 kts 178°
2026-04-23 08:28 36.86103 117.21273 83 ft 9 kts 180°
2026-04-23 08:29 36.86031 117.21273 83 ft 10 kts 179°
2026-04-23 08:29 36.85950 117.21274 83 ft 12 kts 180°
2026-04-23 08:29 36.85854 117.21274 83 ft 15 kts 180°
2026-04-23 08:29 36.85734 117.21274 83 ft 18 kts 180°
2026-04-23 08:30 36.85595 117.21273 83 ft 20 kts 180°
2026-04-23 08:30 36.85458 117.21273 83 ft 18 kts 180°
2026-04-23 08:30 36.85380 117.21259 83 ft 9 kts 223°
2026-04-23 08:30 36.85350 117.21191 83 ft 8 kts 245°
2026-04-23 08:31 36.85325 117.21122 83 ft 8 kts 245°
2026-04-23 08:31 36.85286 117.21076 83 ft 7 kts 190°
2026-04-23 08:31 36.85231 117.21074 83 ft 8 kts 180°
2026-04-23 08:31 36.85186 117.21046 83 ft 7 kts 247°
2026-04-23 08:32 36.85183 117.20983 83 ft 7 kts 270°
2026-04-23 08:32 36.85182 117.20924 83 ft 6 kts 269°
2026-04-23 08:32 36.85182 117.20889 83 ft 1 kts 269°
2026-04-23 08:32 36.85182 117.20888 83 ft 0 kts 269°